#timestamp,LO_Frequency,Hit,StdDev 
1569042015.6,286046999.7,N
1569042035.4,286047000.2,N
1569042055.3,286047000.4,N
1569042075.1,286047002.6,N
1569042095.8,286047002.4,N
1569042115.6,286047000.2,N
1569042135.5,286046999.8,N
1569042155.5,286046999.7,N
1569042175.3,286047000.3,N
1569042195.1,286046999.3,N
1569042215.9,286047000.8,N
1569042235.7,286046999.9,N
1569042255.6,286047002.6,N
1569042275.4,286047001.5,N
1569042295.3,286047005.9,Y
1569042315.1,286047003.6,P
1569042316.0,286047003.6,N
1569042335.8,286047004.2,P
1569042355.7,286047004.4,Y
1569042375.5,286046998.1,P
1569042395.4,286047000.9,N
1569042415.2,286046999.7,N
1569042435.0,286047000.1,N
1569042435.9,286047000.1,N
1569042455.8,286046998.1,N
1569042475.6,286047002.8,N
1569042495.5,286047000.1,N
1569042515.3,286047000.5,N
1569042535.1,286047002.2,N
1569042555.9,286047000.1,N
1569042575.7,286047000.1,N
1569042595.6,286047000.4,N
1569042615.4,286047000.9,N
1569042635.2,286046999.9,N
1569042655.1,286046998.2,N
1569042656.0,286046998.2,N
1569042675.8,286046998.6,N
1569042695.6,286047001.0,N
1569042715.5,286046998.1,N
1569042735.3,286047000.6,N
1569042755.2,286046998.4,N
1569042775.0,286046996.6,N
1569042775.9,286046996.6,N
1569042795.7,286046996.7,N
1569042815.6,286046999.4,N
1569042835.4,286046998.7,N
1569042855.3,286047000.3,N
1569042875.1,286047001.9,N
1569042876.0,286047001.9,N
1569042895.8,286047000.2,N
1569042915.7,286047000.2,N
1569042935.5,286047000.4,N
1569042955.4,286047002.4,N
1569042975.2,286047002.8,N
1569042995.0,286047001.6,N
1569042995.9,286047001.6,N
1569043015.8,286047002.6,N
1569043035.6,286047002.7,N
1569043055.4,286046999.9,N
1569043075.3,286047001.2,N
1569043095.1,286047000.4,N
1569043115.9,286047001.1,N
1569043135.7,286047000.2,N
1569043155.6,286047001.2,N
1569043175.4,286046998.9,N
1569043195.2,286046998.1,N
1569043215.1,286046999.3,N
1569043216.0,286046999.3,N
1569043235.8,286046996.8,N
1569043255.6,286046998.4,N
1569043275.5,286047000.8,N
1569043295.3,286047000.8,N
1569043315.2,286046998.9,N
1569043335.9,286046999.6,N
1569043355.7,286046999.2,N
1569043375.6,286047000.9,N
1569043395.5,286046999.7,N
1569043415.4,286047001.7,N
1569043435.2,286047001.4,N
1569043455.0,286047001.7,N
1569043456.0,286047001.7,N
1569043475.8,286047001.3,N
1569043495.6,286047000.2,N
1569043515.5,286047000.6,N
1569043535.3,286047001.2,N
1569043555.1,286047000.9,N
1569043575.9,286047001.0,N
1569043595.7,286047000.5,N
1569043615.6,286047000.4,N
1569043635.4,286047000.2,N
1569043655.2,286047000.2,N
1569043675.1,286047000.3,N
1569043676.0,286047000.3,N
1569043695.8,286046999.9,N
1569043715.6,286047000.2,N
1569043735.5,286047002.2,N
1569043755.3,286047002.2,N
1569043775.2,286047002.4,N
1569043795.9,286047002.0,N
1569043815.7,286047002.6,N
1569043835.6,286047004.3,Y
1569043855.4,286047001.6,P
1569043875.3,286047002.1,P
1569043895.1,286047002.6,P
1569043896.0,286047002.6,Y
1569043915.8,286047001.1,P
1569043935.7,286046998.3,P
1569043955.5,286046998.4,N
1569043975.4,286046996.9,N
1569043995.2,286046999.1,N
1569044015.0,286046999.4,N
1569044015.9,286046999.4,N
1569044035.8,286046998.1,N
1569044055.6,286046999.7,N
1569044075.5,286047002.6,N
1569044095.3,286047002.5,N
1569044115.1,286047001.8,N
1569044135.9,286047004.3,N
1569044155.7,286047002.6,N
1569044175.6,286047002.5,N
1569044195.4,286047003.7,N
1569044215.2,286047001.9,N
1569044235.5,286047001.7,N
1569044255.3,286047001.4,N
1569044275.1,286047001.6,N
1569044295.9,286047001.4,N
1569044315.7,286047002.6,N
1569044335.5,286047002.6,N
1569044355.4,286046999.7,N
1569044375.2,286047000.8,N
1569044395.1,286047001.2,N
1569044396.0,286047001.2,N
1569044415.8,286046998.9,N
1569044435.6,286046999.6,N
1569044455.5,286046998.9,N
1569044475.3,286046999.4,N
1569044495.2,286046998.8,N
1569044515.9,286047000.3,N
1569044535.7,286047000.9,N
1569044555.6,286047000.3,N
1569044575.4,286047000.1,N
1569044595.2,286047002.3,N
1569044615.1,286046999.7,N
1569044616.0,286046999.7,N
1569044635.8,286047000.2,N
1569044655.7,286047000.5,N
1569044675.5,286046999.7,N
1569044695.3,286046999.7,N
1569044715.2,286047002.7,N
1569044735.0,286047001.9,N
1569044735.9,286047001.9,N
1569044755.8,286047002.0,N
1569044775.6,286046999.9,N
1569044795.4,286046999.8,N
1569044815.3,286046999.9,N
1569044835.1,286047000.0,N
1569044855.9,286046999.8,N
1569044875.7,286047002.6,N
1569044895.5,286047001.3,N
1569044915.4,286047003.8,Y
1569044935.2,286047003.6,P
1569044955.0,286047003.8,N
1569044955.9,286047003.8,N
1569044975.8,286047003.4,N
1569044995.6,286047006.0,Y
1569045015.5,286047002.7,P
1569045035.3,286047000.6,P
1569045055.1,286047000.8,N
1569045075.9,286047000.9,N
1569045095.7,286046999.7,N
1569045115.6,286047002.5,N
1569045135.4,286047002.5,N
1569045155.2,286047002.0,N
1569045175.1,286047004.3,Y
1569045176.0,286047004.3,P
1569045195.8,286047000.5,N
1569045215.7,286047000.8,N
1569045235.5,286046998.6,N
1569045255.3,286046999.4,N
1569045275.2,286046997.7,N
1569045295.0,286046994.9,N
1569045295.9,286046994.9,N
1569045315.7,286046997.8,N
1569045335.6,286046998.0,N
1569045355.4,286046995.4,N
1569045375.3,286046998.0,N
1569045395.1,286046997.8,N
1569045396.0,286046997.8,N
1569045415.8,286046997.5,N
1569045435.7,286046996.7,N
1569045455.5,286046996.6,N
1569045475.4,286046997.3,N
1569045495.2,286046997.5,N
1569045515.0,286046997.4,N
1569045515.9,286046997.4,N
1569045535.8,286046997.7,N
1569045555.6,286046995.0,N
1569045575.4,286046995.3,N
1569045595.3,286046996.3,N
